This is the latest recevied weather packets stored in our database for station/object KB2SKP. If no packets are shown the sender has not sent any weather packets the latest 1 day(s).
| Time | Temp. | Humidity | Pressure | Rain* | Wind** | Luminosity | Snow |
|---|---|---|---|---|---|---|---|
| 1778000628 | 26.11° C | 41% | 1009.3 hPa | 0 mm | 0.89 m/s, 140° | 37 W/m² | - |
| 1778000323 | 26.11° C | 41% | 1009.3 hPa | 0 mm | 1.34 m/s, 141° | 172 W/m² | - |
| 1778000019 | 26.67° C | 42% | 1009.3 hPa | 0 mm | 0 m/s | 37 W/m² | - |
| 1777999715 | 26.11° C | 43% | 1009.4 hPa | 0 mm | 0 m/s | 35 W/m² | - |
| 1777999411 | 26.11° C | 42% | 1009.5 hPa | 0 mm | 0.45 m/s, 10° | 37 W/m² | - |
| 1777999110 | 26.11° C | 42% | 1009.6 hPa | 0 mm | 0 m/s | 37 W/m² | - |
| 1777998808 | 26.11° C | 42% | 1009.6 hPa | 0 mm | 0.89 m/s, 255° | 35 W/m² | - |
| 1777998506 | 25.56° C | 43% | 1009.7 hPa | 0 mm | 0.45 m/s, 135° | 35 W/m² | - |
| 1777998202 | 25.56° C | 44% | 1009.9 hPa | 0 mm | 1.79 m/s, 269° | 35 W/m² | - |
| 1777997899 | 25.56° C | 43% | 1009.8 hPa | 0 mm | 0 m/s | 38 W/m² | - |
| 1777997597 | 25° C | 46% | 1009.7 hPa | 0 mm | 0 m/s | 35 W/m² | - |
| 1777997294 | 25° C | 45% | 1010.1 hPa | 0 mm | 0.89 m/s, 343° | 35 W/m² | - |
| 1777996992 | 25° C | 45% | 1010.2 hPa | 0 mm | 0.89 m/s, 214° | 35 W/m² | - |
| 1777996688 | 25° C | 47% | 1010.1 hPa | 0 mm | 0 m/s | 90 W/m² | - |
| 1777996384 | 25° C | 47% | 1009.9 hPa | 0 mm | 0.45 m/s, 135° | 48 W/m² | - |
| 1777996080 | 24.44° C | 48% | 1010.2 hPa | 0 mm | 1.34 m/s, 59° | 36 W/m² | - |
| 1777995777 | 24.44° C | 49% | 1010.2 hPa | 0 mm | 0 m/s | 34 W/m² | - |
| 1777995473 | 23.89° C | 48% | 1010 hPa | 0 mm | 0.45 m/s, 234° | 35 W/m² | - |
| 1777995170 | 24.44° C | 50% | 1010.1 hPa | 0 mm | 0.45 m/s, 356° | 35 W/m² | - |
| 1777994867 | 23.89° C | 50% | 1010 hPa | 0 mm | 1.34 m/s, 180° | 36 W/m² | - |
| 1777994563 | 23.89° C | 50% | 1009.9 hPa | 0 mm | 0 m/s | 34 W/m² | - |
| 1777994258 | 23.33° C | 51% | 1010.1 hPa | 0 mm | 0.89 m/s, 169° | 35 W/m² | - |
| 1777993956 | 23.33° C | 49% | 1010 hPa | 0 mm | 0.89 m/s, 92° | 36 W/m² | - |
| 1777993652 | 23.33° C | 50% | 1009.9 hPa | 0 mm | 0 m/s | 91 W/m² | - |
| 1777993349 | 23.89° C | 52% | 1009.9 hPa | 0 mm | 0 m/s | 57 W/m² | - |
* Rain latest hour (hover to see other rain measurements)
** Current wind speed in m/s (hover to see current wind gust speed)